KLM728 WSSS-EHAM

Flight info

Callsign KLM728
Flight time N/A
Altitude 30000
Route AROSO3A AROSO Y513 KALIL Y501 RINBA Y503 VPL P628 VATLA/N0510F320 P628 VIKIT/N0504F340 P628 RK G202 ZB L750 RANAH B449 MAMED B450 BIBIM A909 RODAR M11 ERLEV T923 SUBUT T916 MATAL DCT REBLO/N0483F360 UR317 TBN UM11 CRM UL746 ODERO DCT TUVNU DCT FOGRE DCT TEKVI DCT ELMEK DCT VEXIL DCT KATCE DCT AMSAN T281 NORKU
Aircraft B77W/H-SDE1E2E3FGHIJ2J3J4J5M1RWXY/LB1D1

Departure

Time N/A
Airport Singapore Changi Airport (WSSS)

Arrival

Time 2026-04-28 18:56
Airport Amsterdam Airport Schiphol (EHAM)
Time Latitude Longitude Altitude Speed Heading
2026-04-28 18:27 51.94635 7.88558 38261 ft 474 kts 295°
2026-04-28 18:27 51.97225 7.78838 38251 ft 473 kts 295°
2026-04-28 18:28 51.99831 7.69028 38225 ft 474 kts 295°
2026-04-28 18:28 52.01153 7.64045 37408 ft 485 kts 295°
2026-04-28 18:28 52.02478 7.59033 36779 ft 483 kts 295°
2026-04-28 18:28 52.03802 7.54012 36055 ft 483 kts 296°
2026-04-28 18:29 52.05120 7.48995 35229 ft 485 kts 297°
2026-04-28 18:29 52.06449 7.43933 34393 ft 488 kts 297°
2026-04-28 18:29 52.07786 7.38839 33410 ft 491 kts 297°
2026-04-28 18:29 52.09123 7.33730 32650 ft 490 kts 297°
2026-04-28 18:30 52.10447 7.28649 32440 ft 486 kts 297°
2026-04-28 18:30 52.13040 7.18673 31647 ft 481 kts 297°
2026-04-28 18:30 52.14428 7.13724 30844 ft 479 kts 302°
2026-04-28 18:31 52.16073 7.09089 30004 ft 477 kts 306°
2026-04-28 18:31 52.18004 7.04704 29155 ft 473 kts 312°
2026-04-28 18:31 52.20068 7.00626 28284 ft 459 kts 313°
2026-04-28 18:31 52.22069 6.96641 27170 ft 451 kts 312°
2026-04-28 18:32 52.24047 6.92694 26098 ft 450 kts 312°
2026-04-28 18:32 52.26020 6.88754 25508 ft 446 kts 312°
2026-04-28 18:32 52.27972 6.84848 24909 ft 443 kts 311°
2026-04-28 18:32 52.29908 6.80965 24313 ft 439 kts 311°
2026-04-28 18:33 52.31834 6.77093 23699 ft 437 kts 311°
2026-04-28 18:33 52.33746 6.73241 23009 ft 433 kts 311°
2026-04-28 18:33 52.35633 6.69438 22402 ft 429 kts 311°
2026-04-28 18:33 52.37488 6.65700 21813 ft 425 kts 311°
2026-04-28 18:34 52.39340 6.61961 21237 ft 421 kts 311°
2026-04-28 18:34 52.41174 6.58257 20663 ft 417 kts 311°
2026-04-28 18:34 52.42991 6.54579 20100 ft 414 kts 311°
2026-04-28 18:34 52.44793 6.50926 19543 ft 411 kts 311°
2026-04-28 18:35 52.46382 6.47101 18946 ft 407 kts 298°
2026-04-28 18:35 52.47215 6.42659 18405 ft 410 kts 281°
2026-04-28 18:35 52.47349 6.38002 17810 ft 406 kts 271°
2026-04-28 18:35 52.47449 6.33396 17247 ft 402 kts 275°
2026-04-28 18:36 52.47675 6.28884 16718 ft 399 kts 277°
2026-04-28 18:36 52.47933 6.24371 16177 ft 396 kts 277°
2026-04-28 18:36 52.48182 6.19890 15652 ft 394 kts 277°
2026-04-28 18:36 52.48415 6.15414 15109 ft 392 kts 277°
2026-04-28 18:37 52.48637 6.10959 14592 ft 390 kts 276°
2026-04-28 18:37 52.48851 6.06520 14059 ft 389 kts 276°
2026-04-28 18:37 52.49062 6.02091 13482 ft 387 kts 276°
2026-04-28 18:37 52.49269 5.97699 12920 ft 385 kts 276°
2026-04-28 18:38 52.49473 5.93330 12390 ft 383 kts 276°
2026-04-28 18:38 52.49673 5.89029 11863 ft 382 kts 276°
2026-04-28 18:38 52.49876 5.84643 11346 ft 380 kts 276°
2026-04-28 18:38 52.50068 5.80423 11148 ft 369 kts 276°
2026-04-28 18:39 52.50252 5.76364 10967 ft 345 kts 275°
2026-04-28 18:39 52.50423 5.72565 10801 ft 323 kts 276°
2026-04-28 18:39 52.50584 5.69010 10678 ft 302 kts 276°
2026-04-28 18:39 52.50733 5.65674 10542 ft 283 kts 276°
2026-04-28 18:40 52.50871 5.62533 10449 ft 277 kts 276°
2026-04-28 18:40 52.51018 5.59212 10384 ft 303 kts 274°
2026-04-28 18:40 52.50723 5.55768 10226 ft 309 kts 246°
2026-04-28 18:40 52.49680 5.52749 10123 ft 302 kts 237°
2026-04-28 18:41 52.48574 5.49821 9990 ft 300 kts 237°
2026-04-28 18:41 52.47484 5.46912 9867 ft 299 kts 237°
2026-04-28 18:41 52.46400 5.44007 9742 ft 297 kts 237°
2026-04-28 18:41 52.45332 5.41136 9634 ft 292 kts 237°
2026-04-28 18:42 52.44281 5.38306 9534 ft 289 kts 238°
2026-04-28 18:42 52.43239 5.35496 9409 ft 287 kts 238°
2026-04-28 18:42 52.42213 5.32729 9315 ft 288 kts 238°
2026-04-28 18:42 52.41165 5.29904 9203 ft 291 kts 238°
2026-04-28 18:43 52.40107 5.27049 9109 ft 293 kts 238°
2026-04-28 18:43 52.39048 5.24197 8985 ft 291 kts 238°
2026-04-28 18:43 52.38001 5.21376 8883 ft 287 kts 238°
2026-04-28 18:43 52.36961 5.18577 8757 ft 286 kts 238°
2026-04-28 18:44 52.35931 5.15808 8634 ft 286 kts 237°
2026-04-28 18:44 52.33849 5.10228 8445 ft 289 kts 237°
2026-04-28 18:44 52.32818 5.07467 8330 ft 288 kts 237°
2026-04-28 18:45 52.31776 5.04679 8215 ft 287 kts 237°
2026-04-28 18:45 52.30742 5.01904 8087 ft 286 kts 237°
2026-04-28 18:45 52.29709 4.99121 7862 ft 282 kts 237°
2026-04-28 18:45 52.28711 4.96428 7716 ft 273 kts 237°
2026-04-28 18:46 52.27744 4.93822 7391 ft 264 kts 237°
2026-04-28 18:46 52.26792 4.91254 6882 ft 263 kts 237°
2026-04-28 18:46 52.25855 4.88716 6435 ft 260 kts 237°
2026-04-28 18:46 52.24925 4.86180 5986 ft 260 kts 237°
2026-04-28 18:47 52.23996 4.83629 5604 ft 263 kts 237°
2026-04-28 18:47 52.23076 4.81088 5251 ft 264 kts 237°
2026-04-28 18:47 52.22142 4.78485 4872 ft 266 kts 237°
2026-04-28 18:47 52.21212 4.75888 4540 ft 259 kts 237°
2026-04-28 18:48 52.20338 4.73426 4382 ft 244 kts 237°
2026-04-28 18:48 52.19513 4.71083 4289 ft 232 kts 237°
2026-04-28 18:48 52.18703 4.68778 4286 ft 235 kts 237°
2026-04-28 18:48 52.17915 4.66531 4235 ft 226 kts 237°
2026-04-28 18:49 52.17162 4.64356 4265 ft 214 kts 237°
2026-04-28 18:49 52.16917 4.63645 4235 ft 213 kts 237°
2026-04-28 18:49 52.15716 4.60183 4212 ft 214 kts 237°
2026-04-28 18:49 52.15174 4.57885 3870 ft 224 kts 265°
2026-04-28 18:50 52.15453 4.55440 3481 ft 218 kts 305°
2026-04-28 18:50 52.16440 4.53727 3101 ft 202 kts 332°
2026-04-28 18:50 52.17562 4.52428 2803 ft 193 kts 339°
2026-04-28 18:50 52.18770 4.51918 2366 ft 170 kts 18°
2026-04-28 18:51 52.19826 4.52568 2224 ft 162 kts 33°
2026-04-28 18:51 52.20807 4.53520 2176 ft 164 kts 52°
2026-04-28 18:51 52.21504 4.54955 2122 ft 164 kts 56°
2026-04-28 18:51 52.22192 4.56426 2061 ft 161 kts 58°
2026-04-28 18:52 52.22803 4.57906 1994 ft 154 kts 61°
2026-04-28 18:52 52.23375 4.59368 1992 ft 153 kts 61°
2026-04-28 18:52 52.23954 4.60868 1805 ft 160 kts 62°
2026-04-28 18:52 52.24341 4.61869 1690 ft 151 kts 61°
2026-04-28 18:53 52.24867 4.63229 1458 ft 132 kts 61°
2026-04-28 18:53 52.25325 4.64418 1340 ft 119 kts 60°
2026-04-28 18:53 52.25779 4.65566 1171 ft 121 kts 60°
2026-04-28 18:53 52.26225 4.66746 1035 ft 123 kts 61°
2026-04-28 18:54 52.26678 4.67950 886 ft 126 kts 59°
2026-04-28 18:54 52.27159 4.69166 644 ft 127 kts 58°
2026-04-28 18:54 52.27623 4.70379 496 ft 129 kts 60°
2026-04-28 18:54 52.28111 4.71641 338 ft 137 kts 58°
2026-04-28 18:55 52.28617 4.72965 147 ft 134 kts 57°
2026-04-28 18:55 52.29102 4.74219 5 ft 124 kts 58°
2026-04-28 18:55 52.29505 4.75278 3 ft 93 kts 58°
2026-04-28 18:55 52.29784 4.76000 1 ft 57 kts 58°
2026-04-28 18:56 52.29958 4.76444 2 ft 35 kts 53°
2026-04-28 18:56 52.30111 4.76608 3 ft 18 kts 27°
2026-04-28 18:56 52.30181 4.76670 4 ft 8 kts 28°
2026-04-28 18:56 52.30229 4.76712 4 ft 8 kts 26°
2026-04-28 18:57 52.30277 4.76751 4 ft 8 kts 32°
2026-04-28 18:57 52.30311 4.76818 4 ft 8 kts 58°
2026-04-28 18:57 52.30340 4.76894 4 ft 8 kts 58°
2026-04-28 18:57 52.30369 4.76969 4 ft 8 kts 57°
2026-04-28 18:58 52.30398 4.77044 4 ft 8 kts 57°
2026-04-28 18:58 52.30431 4.77132 4 ft 11 kts 58°
2026-04-28 18:58 52.30479 4.77256 4 ft 15 kts 57°
2026-04-28 18:58 52.30538 4.77407 4 ft 16 kts 57°
2026-04-28 18:59 52.30602 4.77546 4 ft 15 kts 43°
2026-04-28 18:59 52.30698 4.77589 4 ft 15 kts
2026-04-28 18:59 52.30802 4.77601 4 ft 15 kts
2026-04-28 18:59 52.30905 4.77611 4 ft 15 kts
2026-04-28 19:00 52.31008 4.77620 4 ft 15 kts
2026-04-28 19:00 52.31112 4.77627 4 ft 15 kts
2026-04-28 19:00 52.31216 4.77634 4 ft 15 kts
2026-04-28 19:00 52.31320 4.77648 4 ft 15 kts
2026-04-28 19:01 52.31424 4.77646 4 ft 15 kts 348°
2026-04-28 19:01 52.31513 4.77563 4 ft 15 kts 319°
2026-04-28 19:01 52.31575 4.77429 4 ft 15 kts 291°
2026-04-28 19:01 52.31574 4.77260 4 ft 15 kts 265°
2026-04-28 19:02 52.31568 4.77091 4 ft 15 kts 265°
2026-04-28 19:02 52.31560 4.76922 4 ft 15 kts 265°
2026-04-28 19:02 52.31554 4.76753 4 ft 15 kts 267°
2026-04-28 19:02 52.31549 4.76584 4 ft 15 kts 266°
2026-04-28 19:03 52.31541 4.76414 4 ft 15 kts 265°
2026-04-28 19:03 52.31538 4.76245 4 ft 15 kts 268°
2026-04-28 19:03 52.31532 4.76078 4 ft 15 kts 266°
2026-04-28 19:03 52.31520 4.75941 4 ft 8 kts 236°
2026-04-28 19:04 52.31468 4.75921 4 ft 8 kts 176°
2026-04-28 19:04 52.31408 4.75927 4 ft 9 kts 177°
2026-04-28 19:04 52.31346 4.75931 4 ft 9 kts 178°
2026-04-28 19:04 52.31305 4.75938 4 ft 5 kts 163°
2026-04-28 19:05 52.31280 4.75982 4 ft 5 kts 113°
2026-04-28 19:05 52.31271 4.76023 4 ft 3 kts 110°
2026-04-28 19:05 52.31265 4.76050 4 ft 1 kts 110°
2026-04-28 19:05 52.31264 4.76056 4 ft 0 kts 110°
2026-04-28 19:08 52.31264 4.76055 4 ft 0 kts 110°